Powrót do katalogu

BREEZE-M DEB

AktywnyHEO
NORAD 32031·DEBRIS·🇷🇺 Russia

Wystrzelony Feb 28, 2006 z Baikonur Cosmodrome

Loading…

Następne Przeloty (najbliższe 24 godziny)

TLE

ŚwieżeSource: Space-Track

Epoka: Sep 14, 2026, 03:39 UTC

1 32031U 06006J   26257.15270380  .00000158  00000-0  78132-3 0  9997
2 32031  51.4741 295.2281 5051221 343.4320   4.8109  5.17112714368803

Śledź BREEZE-M DEB w czasie rzeczywistym z AllMySat

Download on the App Store